Time,TemperatureF,DewpointF,PressureIn,WindDirection,WindDirectionDegrees,WindSpeedMPH,WindSpeedGustMPH,Humidity,HourlyPrecipIn,Conditions,Clouds,dailyrainin,SoftwareType,DateUTC
2013-02-08 00:01:00,44.0,39.0,29.51,South,179,0.0,0.0,82,0.04,,,0.30,,2013-02-07 23:01:00,
2013-02-08 00:11:00,44.0,39.0,29.51,South,179,0.0,0.0,82,0.04,,,0.30,,2013-02-07 23:11:00,
2013-02-08 00:21:00,44.0,39.0,29.51,South,179,0.0,0.0,82,0.02,,,0.30,,2013-02-07 23:21:00,
2013-02-08 00:31:00,44.0,39.0,29.51,SE,139,3.0,4.0,82,0.01,,,0.30,,2013-02-07 23:31:00,
2013-02-08 00:41:00,44.0,39.0,29.51,SE,139,3.0,4.0,82,0.01,,,0.30,,2013-02-07 23:41:00,
2013-02-08 00:52:00,44.0,39.0,29.51,SE,138,2.0,3.0,82,0.01,,,0.30,,2013-02-07 23:52:00,
2013-02-08 01:01:00,44.0,39.0,29.51,SE,138,3.0,3.0,83,0.00,,,0.30,,2013-02-08 00:01:00,
2013-02-08 01:11:00,44.0,39.0,29.51,SE,138,3.0,3.0,83,0.00,,,0.30,,2013-02-08 00:11:00,
2013-02-08 01:21:00,44.0,39.0,29.51,East,93,1.0,1.0,84,0.01,,,0.31,,2013-02-08 00:21:00,
2013-02-08 01:31:00,44.0,39.0,29.51,ENE,61,3.0,3.0,83,0.04,,,0.33,,2013-02-08 00:31:00,
2013-02-08 01:41:00,44.0,39.0,29.51,ENE,61,3.0,3.0,83,0.04,,,0.33,,2013-02-08 00:41:00,
2013-02-08 01:52:00,44.0,39.0,29.51,ENE,72,0.0,6.0,81,0.04,,,0.33,,2013-02-08 00:52:00,
2013-02-08 02:01:00,44.0,39.0,29.51,ENE,69,3.0,6.0,84,0.05,,,0.34,,2013-02-08 01:01:00,
2013-02-08 02:11:00,44.0,39.0,29.51,ENE,69,3.0,6.0,84,0.05,,,0.34,,2013-02-08 01:11:00,
2013-02-08 02:21:00,44.0,39.0,29.51,ENE,75,2.0,4.0,84,0.05,,,0.33,,2013-02-08 01:21:00,
2013-02-08 02:31:00,44.0,40.0,29.51,ENE,64,7.0,9.0,85,0.03,,,0.33,,2013-02-08 01:31:00,
2013-02-08 02:41:00,44.0,40.0,29.51,ENE,64,7.0,9.0,85,0.03,,,0.33,,2013-02-08 01:41:00,
2013-02-08 02:51:00,44.0,39.0,29.51,NE,54,4.0,11.0,83,0.01,,,0.33,,2013-02-08 01:51:00,
2013-02-08 03:01:00,44.0,39.0,29.51,East,95,3.0,7.0,82,0.00,,,0.32,,2013-02-08 02:01:00,
2013-02-08 03:11:00,44.0,39.0,29.51,East,95,3.0,7.0,82,0.00,,,0.32,,2013-02-08 02:11:00,
2013-02-08 03:21:00,44.0,39.0,29.51,ENE,64,4.0,9.0,82,0.00,,,0.32,,2013-02-08 02:21:00,
2013-02-08 03:31:00,44.0,38.0,29.51,ENE,66,1.0,10.0,80,0.00,,,0.32,,2013-02-08 02:31:00,
2013-02-08 03:42:00,44.0,38.0,29.51,ENE,66,1.0,10.0,80,0.00,,,0.32,,2013-02-08 02:42:00,
2013-02-08 03:52:00,44.0,38.0,29.51,ESE,104,6.0,8.0,79,0.00,,,0.32,,2013-02-08 02:52:00,
2013-02-08 04:01:00,44.0,38.0,29.50,NE,48,7.0,7.0,78,0.00,,,0.32,,2013-02-08 03:01:00,
2013-02-08 04:11:00,44.0,38.0,29.50,NE,48,7.0,7.0,78,0.00,,,0.32,,2013-02-08 03:11:00,
2013-02-08 04:22:00,44.0,38.0,29.50,ESE,103,3.0,9.0,78,0.00,,,0.32,,2013-02-08 03:22:00,
2013-02-08 04:31:00,44.0,37.0,29.51,ENE,65,1.0,2.0,77,0.00,,,0.32,,2013-02-08 03:31:00,
2013-02-08 04:41:00,44.0,37.0,29.51,ENE,65,1.0,2.0,77,0.00,,,0.32,,2013-02-08 03:41:00,
2013-02-08 04:51:00,44.0,37.0,29.51,East,90,3.0,5.0,77,0.00,,,0.32,,2013-02-08 03:51:00,
2013-02-08 05:01:00,44.0,37.0,29.51,East,90,0.0,4.0,76,0.00,,,0.32,,2013-02-08 04:01:00,
2013-02-08 05:11:00,44.0,37.0,29.51,East,90,0.0,4.0,76,0.00,,,0.32,,2013-02-08 04:11:00,
2013-02-08 05:21:00,44.0,37.0,29.52,East,90,1.0,3.0,76,0.00,,,0.32,,2013-02-08 04:21:00,
2013-02-08 05:31:00,43.0,37.0,29.52,NE,38,4.0,5.0,80,0.00,,,0.32,,2013-02-08 04:31:00,
2013-02-08 05:41:00,43.0,37.0,29.52,NE,38,4.0,5.0,80,0.00,,,0.32,,2013-02-08 04:41:00,
2013-02-08 05:51:00,43.0,38.0,29.52,NNE,19,10.0,10.0,81,0.00,,,0.32,,2013-02-08 04:51:00,
2013-02-08 06:01:00,42.0,37.0,29.52,NE,39,5.0,8.0,82,0.00,,,0.32,,2013-02-08 05:01:00,
2013-02-08 06:11:00,42.0,37.0,29.52,NE,39,5.0,8.0,82,0.00,,,0.32,,2013-02-08 05:11:00,
2013-02-08 06:21:00,42.0,37.0,29.52,NE,40,2.0,6.0,82,0.00,,,0.32,,2013-02-08 05:21:00,
2013-02-08 06:31:00,42.0,37.0,29.53,NNE,31,3.0,5.0,81,0.00,,,0.32,,2013-02-08 05:31:00,
2013-02-08 06:41:00,42.0,37.0,29.53,NNE,31,3.0,5.0,81,0.00,,,0.32,,2013-02-08 05:41:00,
2013-02-08 06:52:00,42.0,37.0,29.53,NNE,32,2.0,4.0,81,0.00,,,0.32,,2013-02-08 05:52:00,
2013-02-08 07:01:00,42.0,36.0,29.54,NNE,27,3.0,6.0,80,0.00,,,0.32,,2013-02-08 06:01:00,
2013-02-08 07:11:00,42.0,36.0,29.54,NNE,27,3.0,6.0,80,0.00,,,0.32,,2013-02-08 06:11:00,
2013-02-08 07:21:00,43.0,37.0,29.54,NE,38,3.0,7.0,78,0.00,,,0.32,,2013-02-08 06:21:00,
2013-02-08 07:31:00,44.0,36.0,29.55,ENE,75,3.0,10.0,72,0.00,,,0.32,,2013-02-08 06:31:00,
2013-02-08 07:41:00,44.0,36.0,29.55,ENE,75,3.0,10.0,72,0.00,,,0.32,,2013-02-08 06:41:00,
2013-02-08 07:51:00,44.0,35.0,29.55,East,89,8.0,13.0,71,0.00,,,0.32,,2013-02-08 06:51:00,
2013-02-08 08:01:00,44.0,36.0,29.55,NE,55,9.0,11.0,72,0.00,,,0.32,,2013-02-08 07:01:00,
2013-02-08 08:11:00,44.0,36.0,29.56,ENE,63,7.0,11.0,72,0.00,,,0.30,,2013-02-08 07:11:00,
2013-02-08 08:21:00,44.0,36.0,29.56,ENE,63,7.0,11.0,72,0.00,,,0.30,,2013-02-08 07:21:00,
2013-02-08 08:31:00,43.0,35.0,29.57,ENE,61,4.0,10.0,73,0.00,,,0.30,,2013-02-08 07:31:00,
2013-02-08 08:41:00,43.0,35.0,29.57,NE,38,8.0,10.0,74,0.00,,,0.30,,2013-02-08 07:41:00,
2013-02-08 08:51:00,43.0,35.0,29.57,NE,38,8.0,10.0,74,0.00,,,0.30,,2013-02-08 07:51:00,
2013-02-08 09:01:00,44.0,36.0,29.58,ENE,66,3.0,3.0,73,0.00,,,0.30,,2013-02-08 08:01:00,
2013-02-08 09:11:00,44.0,36.0,29.58,NNE,12,8.0,9.0,73,0.00,,,0.30,,2013-02-08 08:11:00,
2013-02-08 09:21:00,44.0,36.0,29.58,NNE,12,8.0,9.0,73,0.00,,,0.30,,2013-02-08 08:21:00,
2013-02-08 09:32:00,45.0,37.0,29.58,ENE,61,3.0,7.0,72,0.00,,,0.30,,2013-02-08 08:32:00,
2013-02-08 09:41:00,45.0,37.0,29.58,ENE,61,3.0,7.0,72,0.00,,,0.30,,2013-02-08 08:41:00,
2013-02-08 09:52:00,45.0,37.0,29.58,ENE,64,4.0,10.0,72,0.00,,,0.30,,2013-02-08 08:52:00,
2013-02-08 10:02:00,45.0,35.0,29.58,NE,49,4.0,10.0,69,0.00,,,0.30,,2013-02-08 09:02:00,
2013-02-08 10:11:00,45.0,35.0,29.58,NE,49,4.0,10.0,69,0.00,,,0.30,,2013-02-08 09:11:00,
2013-02-08 10:21:00,46.0,36.0,29.58,ENE,71,7.0,12.0,69,0.00,,,0.30,,2013-02-08 09:21:00,
2013-02-08 10:31:00,47.0,36.0,29.59,ENE,65,2.0,9.0,66,0.00,,,0.30,,2013-02-08 09:31:00,
2013-02-08 10:41:00,47.0,36.0,29.59,ENE,65,2.0,9.0,66,0.00,,,0.30,,2013-02-08 09:41:00,
2013-02-08 10:51:00,46.0,35.0,29.59,NE,48,5.0,10.0,65,0.00,,,0.30,,2013-02-08 09:51:00,
2013-02-08 11:01:00,48.0,36.0,29.60,ENE,65,4.0,9.0,64,0.00,,,0.30,,2013-02-08 10:01:00,
2013-02-08 11:11:00,48.0,36.0,29.60,ENE,65,4.0,9.0,64,0.00,,,0.30,,2013-02-08 10:11:00,
2013-02-08 11:21:00,48.0,35.0,29.60,NE,38,4.0,10.0,61,0.00,,,0.30,,2013-02-08 10:21:00,
2013-02-08 11:31:00,48.0,35.0,29.60,NE,36,3.0,10.0,61,0.00,,,0.30,,2013-02-08 10:31:00,
2013-02-08 11:41:00,48.0,35.0,29.60,NE,36,3.0,10.0,61,0.00,,,0.30,,2013-02-08 10:41:00,
2013-02-08 11:51:00,48.0,35.0,29.60,ENE,61,6.0,8.0,60,0.00,,,0.30,,2013-02-08 10:51:00,
2013-02-08 12:01:00,49.0,36.0,29.60,NE,44,7.0,8.0,60,0.00,,,0.30,,2013-02-08 11:01:00,
2013-02-08 12:11:00,49.0,36.0,29.60,NE,44,7.0,8.0,60,0.00,,,0.30,,2013-02-08 11:11:00,
2013-02-08 12:21:00,49.0,35.0,29.60,North,350,3.0,10.0,59,0.00,,,0.30,,2013-02-08 11:21:00,
2013-02-08 12:32:00,48.0,34.0,29.60,NNE,16,9.0,12.0,59,0.00,,,0.30,,2013-02-08 11:32:00,
2013-02-08 12:41:00,48.0,34.0,29.60,NNE,16,9.0,12.0,59,0.00,,,0.30,,2013-02-08 11:41:00,
2013-02-08 12:52:00,49.0,35.0,29.59,North,11,5.0,12.0,58,0.00,,,0.30,,2013-02-08 11:52:00,
2013-02-08 13:01:00,49.0,34.0,29.60,NNE,32,0.0,10.0,56,0.00,,,0.30,,2013-02-08 12:01:00,
2013-02-08 13:11:00,49.0,34.0,29.60,NNE,32,0.0,10.0,56,0.00,,,0.30,,2013-02-08 12:11:00,
2013-02-08 13:21:00,49.0,34.0,29.60,NE,40,4.0,8.0,57,0.00,,,0.30,,2013-02-08 12:21:00,
2013-02-08 13:32:00,48.0,33.0,29.61,NNE,27,3.0,9.0,56,0.00,,,0.30,,2013-02-08 12:32:00,
2013-02-08 13:41:00,48.0,33.0,29.61,NNE,27,3.0,9.0,56,0.00,,,0.30,,2013-02-08 12:41:00,
2013-02-08 13:52:00,49.0,33.0,29.60,NNE,14,5.0,10.0,54,0.00,,,0.30,,2013-02-08 12:52:00,
2013-02-08 14:01:00,49.0,34.0,29.60,NE,38,7.0,10.0,56,0.00,,,0.30,,2013-02-08 13:01:00,
2013-02-08 14:11:00,49.0,34.0,29.60,NE,38,7.0,10.0,56,0.00,,,0.30,,2013-02-08 13:11:00,
2013-02-08 14:21:00,49.0,33.0,29.60,North,360,3.0,8.0,54,0.00,,,0.30,,2013-02-08 13:21:00,
2013-02-08 14:32:00,49.0,33.0,29.60,NNW,329,4.0,11.0,54,0.00,,,0.30,,2013-02-08 13:32:00,
2013-02-08 14:42:00,49.0,33.0,29.60,NNW,329,4.0,11.0,54,0.00,,,0.30,,2013-02-08 13:42:00,
2013-02-08 14:51:00,49.0,34.0,29.60,NNE,23,5.0,10.0,56,0.00,,,0.30,,2013-02-08 13:51:00,
2013-02-08 15:01:00,49.0,34.0,29.60,ENE,63,1.0,5.0,56,0.00,,,0.30,,2013-02-08 14:01:00,
2013-02-08 15:11:00,49.0,34.0,29.60,ENE,63,1.0,5.0,56,0.00,,,0.30,,2013-02-08 14:11:00,
2013-02-08 15:21:00,49.0,33.0,29.60,NE,38,3.0,7.0,54,0.00,,,0.30,,2013-02-08 14:21:00,
2013-02-08 15:32:00,49.0,34.0,29.60,NE,44,3.0,8.0,56,0.00,,,0.30,,2013-02-08 14:32:00,
2013-02-08 15:41:00,49.0,34.0,29.60,NE,44,3.0,8.0,56,0.00,,,0.30,,2013-02-08 14:41:00,
2013-02-08 15:52:00,48.0,33.0,29.61,NNE,20,4.0,8.0,56,0.00,,,0.30,,2013-02-08 14:52:00,
2013-02-08 16:01:00,48.0,33.0,29.60,NNE,31,3.0,6.0,55,0.00,,,0.30,,2013-02-08 15:01:00,
2013-02-08 16:11:00,48.0,33.0,29.60,NNE,31,3.0,6.0,55,0.00,,,0.30,,2013-02-08 15:11:00,
2013-02-08 16:21:00,48.0,32.0,29.60,NNE,23,5.0,7.0,54,0.00,,,0.30,,2013-02-08 15:21:00,
2013-02-08 16:31:00,48.0,33.0,29.61,NE,53,3.0,4.0,55,0.00,,,0.29,,2013-02-08 15:31:00,
2013-02-08 16:41:00,48.0,33.0,29.61,NE,53,3.0,4.0,55,0.00,,,0.29,,2013-02-08 15:41:00,
2013-02-08 16:51:00,48.0,34.0,29.62,ENE,70,7.0,10.0,57,0.00,,,0.28,,2013-02-08 15:51:00,
2013-02-08 17:01:00,47.0,32.0,29.62,ENE,69,6.0,11.0,56,0.00,,,0.28,,2013-02-08 16:01:00,
2013-02-08 17:11:00,47.0,32.0,29.62,ENE,69,6.0,11.0,56,0.00,,,0.28,,2013-02-08 16:11:00,
2013-02-08 17:21:00,47.0,33.0,29.62,ENE,66,6.0,6.0,58,0.00,,,0.28,,2013-02-08 16:21:00,
2013-02-08 17:32:00,47.0,33.0,29.63,East,88,5.0,10.0,59,0.00,,,0.27,,2013-02-08 16:32:00,
2013-02-08 17:41:00,47.0,33.0,29.63,East,88,5.0,10.0,59,0.00,,,0.27,,2013-02-08 16:41:00,
2013-02-08 17:51:00,47.0,33.0,29.63,ENE,67,3.0,8.0,59,0.00,,,0.26,,2013-02-08 16:51:00,
2013-02-08 18:03:00,46.0,32.0,29.64,ENE,74,3.0,10.0,59,0.00,,,0.18,,2013-02-08 17:03:00,
2013-02-08 18:11:00,46.0,32.0,29.64,ENE,74,3.0,10.0,59,0.00,,,0.18,,2013-02-08 17:11:00,
2013-02-08 18:21:00,46.0,33.0,29.64,East,86,8.0,8.0,60,0.00,,,0.13,,2013-02-08 17:21:00,
2013-02-08 18:32:00,46.0,33.0,29.64,ENE,72,8.0,11.0,60,0.00,,,0.10,,2013-02-08 17:32:00,
2013-02-08 18:41:00,46.0,33.0,29.64,ENE,72,8.0,11.0,60,0.00,,,0.10,,2013-02-08 17:41:00,
2013-02-08 18:52:00,45.0,32.0,29.65,East,82,9.0,11.0,61,0.00,,,0.10,,2013-02-08 17:52:00,
2013-02-08 19:01:00,45.0,32.0,29.65,East,79,9.0,10.0,61,0.00,,,0.10,,2013-02-08 18:01:00,
2013-02-08 19:11:00,45.0,32.0,29.65,East,79,9.0,10.0,61,0.00,,,0.10,,2013-02-08 18:11:00,
2013-02-08 19:23:00,45.0,32.0,29.65,ENE,65,8.0,9.0,60,0.00,,,0.10,,2013-02-08 18:23:00,
2013-02-08 19:33:00,45.0,32.0,29.66,ENE,71,6.0,11.0,59,0.00,,,0.10,,2013-02-08 18:33:00,
2013-02-08 19:41:00,45.0,32.0,29.66,ENE,71,6.0,11.0,59,0.00,,,0.10,,2013-02-08 18:41:00,
2013-02-08 19:52:00,45.0,31.0,29.66,ENE,63,3.0,12.0,58,0.00,,,0.10,,2013-02-08 18:52:00,
2013-02-08 20:01:00,45.0,31.0,29.66,East,84,6.0,6.0,58,0.00,,,0.10,,2013-02-08 19:01:00,
2013-02-08 20:11:00,45.0,31.0,29.66,East,84,6.0,6.0,58,0.00,,,0.10,,2013-02-08 19:11:00,
2013-02-08 20:21:00,45.0,31.0,29.67,NE,45,6.0,11.0,58,0.00,,,0.10,,2013-02-08 19:21:00,
2013-02-08 20:32:00,44.0,32.0,29.70,NNW,334,3.0,6.0,62,0.00,,,0.10,,2013-02-08 19:32:00,
2013-02-08 20:41:00,44.0,32.0,29.70,NNW,334,3.0,6.0,62,0.00,,,0.10,,2013-02-08 19:41:00,
2013-02-08 20:52:00,44.0,33.0,29.70,NW,315,7.0,12.0,65,0.00,,,0.10,,2013-02-08 19:52:00,
2013-02-08 21:01:00,42.0,34.0,29.71,West,267,3.0,4.0,74,0.00,,,0.10,,2013-02-08 20:01:00,
2013-02-08 21:11:00,42.0,34.0,29.71,West,267,3.0,4.0,74,0.00,,,0.10,,2013-02-08 20:11:00,
2013-02-08 21:21:00,42.0,34.0,29.71,West,269,3.0,5.0,74,0.00,,,0.10,,2013-02-08 20:21:00,
2013-02-08 21:31:00,42.0,34.0,29.70,East,96,4.0,6.0,74,0.01,,,0.11,,2013-02-08 20:31:00,
2013-02-08 21:41:00,42.0,34.0,29.70,East,96,4.0,6.0,74,0.01,,,0.11,,2013-02-08 20:41:00,
2013-02-08 21:52:00,42.0,34.0,29.70,SE,130,3.0,9.0,72,0.01,,,0.11,,2013-02-08 20:52:00,
2013-02-08 22:01:00,42.0,33.0,29.69,East,81,2.0,7.0,71,0.01,,,0.11,,2013-02-08 21:01:00,
2013-02-08 22:11:00,42.0,33.0,29.69,East,81,2.0,7.0,71,0.01,,,0.11,,2013-02-08 21:11:00,
2013-02-08 22:21:00,42.0,34.0,29.70,ENE,78,3.0,5.0,72,0.01,,,0.11,,2013-02-08 21:21:00,
2013-02-08 22:32:00,43.0,33.0,29.70,ENE,57,3.0,8.0,67,0.01,,,0.10,,2013-02-08 21:32:00,
2013-02-08 22:41:00,43.0,33.0,29.70,ENE,57,3.0,8.0,67,0.01,,,0.10,,2013-02-08 21:41:00,
2013-02-08 22:52:00,42.0,32.0,29.70,NE,55,2.0,4.0,67,0.00,,,0.10,,2013-02-08 21:52:00,
2013-02-08 23:01:00,42.0,31.0,29.70,ENE,67,3.0,4.0,66,0.00,,,0.10,,2013-02-08 22:01:00,
2013-02-08 23:11:00,42.0,31.0,29.70,ENE,67,3.0,4.0,66,0.00,,,0.10,,2013-02-08 22:11:00,
2013-02-08 23:21:00,42.0,31.0,29.70,ENE,76,6.0,6.0,64,0.00,,,0.10,,2013-02-08 22:21:00,
2013-02-08 23:31:00,42.0,31.0,29.70,NE,44,3.0,6.0,64,0.00,,,0.07,,2013-02-08 22:31:00,
2013-02-08 23:41:00,42.0,31.0,29.70,NE,44,3.0,6.0,64,0.00,,,0.07,,2013-02-08 22:41:00,
2013-02-08 23:51:00,42.0,31.0,29.70,NE,48,1.0,5.0,64,0.00,,,0.07,,2013-02-08 22:51:00,